Regional Weather Roundup
Issued by NWS New Orleans/Baton Rouge, LA

Home | Current Version | Previous Version | Text Only | Print | Product List | Glossary Off
Versions: 1 2 3 4 5 6 7 8 9 10 11 12 13 14 15 16 17 18 19 20 21 22 23 24 25 26 27 28 29 30 31 32 33 34 35 36 37 38 39 40 41 42 43 44 45 46 47 48 49 50

551
ASUS44 KLIX 021701
RWRLIX
NEW ORLEANS REGIONAL WEATHER ROUNDUP
NATIONAL WEATHER SERVICE NEW ORLEANS LA
1200 PM CDT TUE SEP 02 2014

NOTE: "FAIR" INDICATES FEW OR NO CLOUDS BELOW 12,000 FEET WITH NO
      SIGNIFICANT WEATHER AND/OR OBSTRUCTIONS TO VISIBILITY.
      SKY/WX - SKY CONDITION AND SIGNIFICANT WEATHER.
      TMP - AIR TEMPERATURE.     DP    - DEWPOINT TEMPERATURE.
      RH  - RELATIVE HUMIDITY.   PRES  - PRESSURE.
      HI  - HEAT INDEX.          WCI   - WIND CHILL INDEX.

*  THESE STATIONS ARE NOT NWS OR FAA STATIONS AND ARE NOT UNDER
   NWS QUALITY CONTROL.

LAZ038-040-048-061>063-065>067-069-021800-
SOUTHEAST LOUISIANA

CITY           SKY/WX    TMP DP  RH WIND       PRES   REMARKS
N.O. AUDUBON     N/A     94  78  60 MISG        N/A  HX 110
N.O. INTL ARPT PTSUNNY   89  75  63 S7        30.07S HX  99
N.O. LAKEFRONT PTSUNNY   87  76  69 W3        30.08S HX  97
N.O. DOWNTOWN*   N/A     91  72  52 S7        30.07S HX  98
SLIDELL        PTSUNNY   87  74  64 VRB3      30.07S HX  95
BATON ROUGE    PTSUNNY   90  73  57 SE5       30.06F HX  98
BOOTHVILLE     PTSUNNY   88  76  67 CALM      30.08F HX  99
BELLE CHASSE   PTSUNNY   90  73  57 MISG      30.06F HX  98
BOGALUSA*        N/A     89  73  58 S5        30.10S THUNDER HX  97
GALLIANO*      NOT AVBL
NEW ROADS*       N/A     88  77  69 S8        30.06F HX 100
GONZALES*        N/A     89  75  63 SW3       30.05F HX  99
HAMMOND*       NOT AVBL
HOUMA*         MOSUNNY   90  72  55 S12       30.07S HX  96
PORT FOURCHON* MOSUNNY   88  77  70 E8        30.09S HX 100

$$

MSZ070-080>082-021800-
SOUTHERN MISSISSIPPI

CITY           SKY/WX    TMP DP  RH WIND       PRES   REMARKS
MCCOMB         PTSUNNY   88  73  61 SW8       30.08F HX  95
GULFPORT       PTSUNNY   88  73  61 SE9       30.07F HX  95
BILOXI         MOSUNNY   89  76  66 S8        30.08S HX 100
PASCAGOULA     PTSUNNY   89  73  59 VRB3      30.07F HX  97
STENNIS ARPT*  MOSUNNY  N/A N/A N/A S6        30.08S

$$

COASTAL OBSERVATIONS
LAKE AND NEARSHORE STATIONS

STATION/POSITION TIME  TEMP    WIND        PRES    WAVE
                       AIR SEA DIR/SP/G            HT/PER
                 (UTC) (F)     (DEG/KT/KT) (MB)    (FT/S)
PASCAGOULA       1600   87     190/  7/  9 1018.3
WAVELAND YACHT   1600   85     180/  6/  8 1018.3
GRAND ISLE       1600   87 85  160/  6/  9 1019.3
SOUTHWEST PASS   1600   90 90  120/  5/  8 1019.0
NEW CANAL        1600   87 81  190/  6/  8 1018.7
SHELL BEACH      1600   86 81  130/  5/  7 1018.3

OFFSHORE STATIONS

STATION/POSITION TIME  TEMP    WIND        PRES    WAVE
                       AIR SEA DIR/SP/G            HT/PER
                 (UTC) (F)     (DEG/KT/KT) (MB)    (FT/S)
64 S DAUPHIN ISL 1549   84 86  120/  4/  6 1019.0

$$




USA.gov is the U.S. government's official web portal to all federal, state and local government web resources and services.